Satellite-Ground Cal/Val Region Overpasses Predictions

Prediction of Satellite NPP Overpassing Cal/Val Region: PacNW

Region Location: (Latitude: 10.00, Longitude: 139.50) to (Latitude: 22.70, Longitude: 165.60).

Table of predicted overpasses for the next 14.0 days since TLE Epoch: 1/29/2016
Interval Starting Time Starting Location Ending Time Ending Location
1 01/29/2016 15:31:59 ( 22.68, 152.34) 01/29/2016 15:35:34 ( 10.05, 149.34)
2 01/30/2016 02:41:04 ( 10.03, 159.87) 01/30/2016 02:44:39 ( 22.66, 156.88)
3 01/30/2016 15:12:56 ( 22.65, 157.09) 01/30/2016 15:16:31 ( 10.03, 154.10)
4 01/31/2016 02:22:00 ( 10.00, 164.64) 01/31/2016 02:25:36 ( 22.68, 161.63)
5 01/31/2016 14:53:53 ( 22.68, 161.86) 01/31/2016 14:57:28 ( 10.06, 158.86)
6 02/01/2016 03:44:28 ( 10.04, 144.02) 02/01/2016 03:48:03 ( 22.66, 141.02)
7 02/01/2016 14:36:02 ( 18.49, 165.59) 02/01/2016 14:38:26 ( 10.03, 163.62)
8 02/01/2016 16:16:21 ( 22.65, 141.24) 02/01/2016 16:18:23 ( 15.49, 139.50)
9 02/02/2016 03:25:24 ( 10.00, 148.79) 02/02/2016 03:29:00 ( 22.68, 145.77)
10 02/02/2016 15:57:17 ( 22.68, 146.01) 02/02/2016 16:00:52 ( 10.05, 143.01)
11 02/03/2016 03:06:22 ( 10.03, 153.54) 02/03/2016 03:09:57 ( 22.65, 150.54)
12 02/03/2016 15:38:15 ( 22.65, 150.76) 02/03/2016 15:41:50 ( 10.03, 147.76)
13 02/04/2016 02:47:19 ( 10.06, 158.29) 02/04/2016 02:50:54 ( 22.68, 155.30)
14 02/04/2016 15:19:11 ( 22.68, 155.53) 02/04/2016 15:22:46 ( 10.06, 152.53)
15 02/05/2016 02:28:16 ( 10.03, 163.06) 02/05/2016 02:31:51 ( 22.65, 160.06)
16 02/05/2016 15:00:09 ( 22.65, 160.28) 02/05/2016 15:03:44 ( 10.03, 157.28)
17 02/06/2016 02:11:54 ( 19.51, 165.60) 02/06/2016 02:12:48 ( 22.68, 164.82)
18 02/06/2016 03:50:42 ( 10.01, 142.45) 02/06/2016 03:54:13 ( 22.39, 139.51)
19 02/06/2016 14:41:05 ( 22.68, 165.05) 02/06/2016 14:44:41 ( 10.00, 162.04)
20 02/06/2016 16:22:35 ( 22.67, 139.67) 02/06/2016 16:22:46 ( 22.03, 139.51)
21 02/07/2016 03:31:40 ( 10.03, 147.20) 02/07/2016 03:35:15 ( 22.66, 144.21)
22 02/07/2016 16:03:33 ( 22.64, 144.42) 02/07/2016 16:07:08 ( 10.02, 141.43)
23 02/08/2016 03:12:36 ( 10.00, 151.97) 02/08/2016 03:16:12 ( 22.68, 148.96)
24 02/08/2016 15:44:29 ( 22.67, 149.19) 02/08/2016 15:48:04 ( 10.05, 146.19)
25 02/09/2016 02:53:34 ( 10.03, 156.73) 02/09/2016 02:57:09 ( 22.65, 153.73)
26 02/09/2016 15:25:27 ( 22.64, 153.94) 02/09/2016 15:29:02 ( 10.02, 150.95)
27 02/10/2016 02:34:31 ( 10.00, 161.49) 02/10/2016 02:38:07 ( 22.68, 158.48)
28 02/10/2016 15:06:23 ( 22.67, 158.71) 02/10/2016 15:09:58 ( 10.05, 155.71)
29 02/11/2016 02:16:16 ( 12.85, 165.60) 02/11/2016 02:19:03 ( 22.66, 163.25)
30 02/11/2016 03:56:58 ( 10.04, 140.87) 02/11/2016 03:58:38 ( 15.92, 139.51)
31 02/11/2016 14:47:21 ( 22.64, 163.46) 02/11/2016 14:50:56 ( 10.02, 160.47)


NCC Satellite Cal/Val Overpasses Prediction Service
